This demonstration page uses our WeatherBlox Daily Observations layout. Learn more.

Left ArrowRight Arrow

Hourly Observations for January 9, 2017

Temp ( °F °C ) Dew Point ( °F °C ) Humidity (%) Winds ( mph kmh ) Pressure ( in mb ) Visibility ( mi km ) Precip ( " mm )
12:58 am 00:58 Clear 18 -8 10 -12.3 72 72 NW 10 17 30.30 1026 10 16 0.00 0.00
1:58 am 01:58 Clear 17 -8.5 10 -12.3 74 74 WNW 12 19 30.30 1026 10 16 0.00 0.00
2:58 am 02:58 Cloudy 17 -8.4 9 -12.8 71 71 WNW 7 11 30.29 1026 10 16 0.00 0.00
3:58 am 03:58 Mostly Cloudy 16 -9 9 -12.9 74 74 WNW 7 11 30.29 1026 10 16 0.00 0.00
4:58 am 04:58 Mostly Cloudy 16 -8.8 9 -12.7 74 74 W 8 13 30.28 1026 10 16 0.00 0.00
5:58 am 05:58 Mostly Cloudy 17 -8.6 9 -12.8 72 72 NW 6 9 30.27 1025 10 16 0.00 0.00
6:58 am 06:58 Cloudy 17 -8.4 9 -12.6 72 72 NNE 6 9 30.24 1024 10 16 0.00 0.00
7:58 am 07:58 Cloudy 17 -8.4 10 -12 76 76 E 7 11 30.20 1023 10 16 0.00 0.00
8:58 am 08:58 Cloudy 18 -7.8 11 -11.4 76 76 SE 9 15 30.21 1023 10 16 0.00 0.00
9:58 am 09:58 Partly Cloudy 19 -7.1 13 -10.5 77 77 ESE 13 20 30.16 1022 10 16 0.00 0.00
10:58 am 10:58 Partly Cloudy 22 -5.7 14 -10 72 72 ESE 15 24 30.10 1019 10 16 0.00 0.00
11:58 am 11:58 Sunny 26 -3.1 16 -8.9 65 65 SE 15 24 30.03 1017 10 16 0.00 0.00
12:58 pm 12:58 Mostly Sunny 29 -1.8 18 -7.7 64 64 SE 13 20 29.96 1014 10 16 0.00 0.00
1:58 pm 13:58 Sunny 32 0 20 -6.6 62 62 ESE 15 24 29.88 1012 10 16 0.00 0.00
2:58 pm 14:58 Sunny 32 -0.1 21 -6 65 65 SE 16 26 29.83 1010 10 16 0.00 0.00
3:58 pm 15:58 Sunny 32 -0.2 23 -5 70 70 SE 15 24 29.82 1010 10 16 0.00 0.00
4:58 pm 16:58 Partly Cloudy 32 0 25 -4.1 74 74 SE 12 19 29.80 1009 10 16 0.00 0.00
5:58 pm 17:58 Mostly Clear 31 -0.7 25 -4 79 79 ESE 12 19 29.77 1008 10 16 0.00 0.00
6:58 pm 18:58 Mostly Clear 30 -0.9 26 -3.5 83 83 ESE 10 17 29.75 1008 10 16 0.00 0.00
7:58 pm 19:58 Clear 29 -1.4 26 -3.1 88 88 SE 7 11 29.71 1006 10 16 0.00 0.00
8:58 pm 20:58 Clear 29 -1.6 27 -2.7 92 92 ESE 8 13 29.67 1005 10 16 0.00 0.00
9:58 pm 21:58 Clear 29 -1.6 28 -2.2 96 96 ESE 6 9 29.65 1004 10 16 0.00 0.00
10:58 pm 22:58 Mostly Clear 35 1.4 32 -0.1 90 90 ESE 8 13 29.60 1003 10 16 0.00 0.00
11:58 pm 23:58 Clear 35 1.5 33 0.5 93 93 SSE 6 9 29.58 1002 10 16 0.00 0.00

Powered by AerisWeather